Lapse_Rate
4.7 5.0 5.6 6.3 6.6 6.6 6.8 6.7 6.6 6.6 6.9 7.2 6.8 6.5 6.0 6.0 5.9 6.0 6.0 6.2 5.6 6.3 6.1 6.1 6.3 6.0 6.0 5.8 6.1 6.2 5.7 5.1 5.1 4.9 4.9 4.9 4.7 4.0
5.9 6.1 6.5 6.7 6.6 6.6 6.8 6.9 7.0 6.8 7.0 7.4 7.6 7.9 6.6 5.8 6.0 6.1 6.1 6.5 5.6 4.8 5.3 5.2 5.6 5.4 5.8 5.7 6.0 6.0 5.9 5.4 5.3 5.1 4.9 4.7 4.8 4.5
6.4 6.3 6.2 6.5 7.0 7.2 7.1 7.3 7.4 7.5 7.6 7.7 7.4 7.2 6.7 6.6 6.4 6.4 6.4 6.4 6.2 6.0 6.3 5.5 5.7 4.7 5.2 5.2 5.5 5.8 5.9 5.8 5.5 5.2 5.1 4.8 4.9 4.7
6.1 6.0 6.6 7.0 7.3 7.3 7.3 7.4 7.5 7.5 7.4 7.7 7.4 7.0 7.0 7.1 7.0 6.7 6.7 6.8 6.8 6.9 7.0 6.6 6.5 5.6 5.4 4.9 5.5 5.5 5.6 5.8 5.3 4.8 4.8 4.9 4.6 4.4
6.6 7.4 7.2 7.0 7.5 7.7 7.5 7.7 7.6 7.7 7.5 7.4 7.3 6.9 7.0 7.0 7.1 7.2 7.2 6.8 6.8 6.9 6.8 6.9 6.1 6.0 5.8 5.8 5.5 5.4 5.3 5.3 5.1 4.8 4.7 5.0 5.1 4.1
7.8 7.6 7.3 7.1 7.4 7.6 7.5 7.6 7.7 7.5 7.6 7.5 7.3 6.8 6.6 6.8 6.8 7.3 7.5 7.4 7.3 6.9 6.9 6.8 6.8 6.7 6.1 6.2 5.5 5.4 5.4 5.8 5.5 5.2 5.0 5.2 5.2 5.1
7.9 7.7 7.6 7.4 7.6 7.6 7.6 7.6 7.6 7.7 7.6 7.3 7.3 7.3 6.9 6.6 6.6 7.0 7.3 7.8 7.5 7.2 7.1 7.1 7.2 7.0 6.4 6.2 6.0 5.9 6.1 5.9 5.9 5.7 5.6 5.5 5.3 5.2
7.9 7.8 7.7 7.6 7.6 7.5 7.5 7.5 7.3 7.3 7.4 7.2 7.2 7.4 7.5 7.1 6.9 7.1 7.2 7.3 7.6 7.8 6.8 6.7 6.8 6.7 7.0 6.3 6.2 6.3 6.3 6.3 6.2 6.0 5.8 5.4 5.5 5.5
7.8 7.8 7.8 7.6 7.5 7.5 7.5 7.4 7.4 7.1 7.2 7.4 7.2 7.2 7.3 7.1 7.1 7.4 7.4 7.1 6.7 6.8 6.3 6.5 5.5 6.3 6.4 6.3 6.8 6.7 6.8 6.2 6.4 6.2 6.1 5.6 5.6 5.6
7.6 7.7 7.6 7.6 7.5 7.5 7.5 7.6 7.7 7.4 7.3 7.5 7.4 7.1 7.0 7.1 7.4 7.3 7.4 7.4 7.2 7.0 6.2 6.3 6.1 6.2 6.3 6.6 6.2 6.4 6.7 6.7 6.3 6.0 6.4 5.5 5.7 5.4
7.5 7.5 7.5 7.3 7.2 7.2 7.3 7.4 7.6 7.7 7.5 7.6 7.5 7.5 7.3 7.2 7.1 7.2 7.1 7.0 6.9 6.8 6.3 6.2 6.2 6.2 6.5 6.8 6.6 6.5 6.8 6.6 6.5 6.0 5.7 5.4 5.3 5.2
7.7 7.6 7.4 7.0 6.7 6.5 6.6 7.0 7.2 7.6 7.6 7.7 7.6 7.6 7.5 7.4 7.0 6.8 6.7 6.8 6.6 6.1 6.1 6.0 6.3 6.3 6.5 6.8 7.1 7.0 6.8 6.7 6.0 5.8 5.4 5.1 4.9 4.7
7.5 7.4 7.2 6.8 6.6 6.6 6.7 6.9 7.4 7.6 7.5 7.7 8.0 7.9 7.6 7.4 6.7 6.5 6.6 6.5 5.9 6.0 6.2 6.1 6.3 6.3 6.3 6.3 6.5 6.4 5.8 6.0 5.9 5.8 5.5 5.4 5.0 4.8
7.2 7.1 6.9 6.7 6.7 6.9 7.3 7.4 7.7 7.8 7.9 7.9 7.8 7.5 7.4 7.0 6.6 6.5 6.3 5.8 5.8 5.9 5.8 6.0 6.0 6.1 6.1 5.9 6.1 5.4 5.7 6.0 5.9 5.9 5.6 5.2 5.1 5.0
7.2 6.9 6.7 6.8 6.9 7.3 7.4 7.5 7.6 7.7 7.6 7.5 7.4 7.2 7.1 6.6 6.3 6.0 5.8 5.8 5.9 5.9 5.7 5.6 5.8 5.5 5.5 5.5 5.7 5.7 5.6 5.7 5.5 5.5 5.6 4.9 4.9 5.0
7.1 6.8 6.8 6.9 7.0 7.4 7.6 7.6 7.6 7.6 7.5 7.3 7.3 6.7 6.4 6.1 6.0 5.9 5.8 5.8 6.0 5.9 5.6 5.5 5.8 5.5 5.4 5.1 5.4 5.5 5.4 5.7 5.8 5.7 5.7 5.7 5.4 5.3
7.0 6.8 6.9 7.0 7.1 7.5 7.5 7.5 7.5 7.3 7.3 7.3 6.6 6.1 5.9 5.9 5.8 5.7 5.8 5.8 5.9 5.9 6.1 6.0 6.0 5.8 5.4 5.2 5.2 5.2 5.0 4.9 5.0 5.3 5.2 5.1 5.2 5.2
7.0 6.8 6.8 7.1 7.3 7.5 7.3 7.3 7.2 7.3 7.1 6.5 6.2 5.8 5.8 5.6 5.5 5.7 5.8 6.0 5.9 6.0 6.1 5.9 6.0 5.9 5.6 5.4 5.2 5.3 5.2 5.2 5.3 5.3 5.3 5.3 5.3 5.3
6.9 6.7 6.7 7.2 7.4 7.6 7.2 7.2 7.1 7.2 6.6 6.1 6.0 5.7 5.6 5.4 5.4 5.6 5.7 5.9 5.8 5.8 5.7 5.8 5.7 5.7 5.8 5.7 5.6 5.4 5.5 5.5 5.5 5.5 5.5 5.4 5.4 5.4
6.7 6.7 6.6 7.1 7.3 7.3 7.0 7.0 6.9 6.9 6.3 6.0 5.9 5.8 5.6 5.4 5.4 5.5 5.6 5.6 5.7 5.7 5.7 5.7 5.7 5.6 5.6 5.7 5.9 5.9 5.8 5.5 5.6 5.6 5.5 5.6 5.6 5.6
6.6 6.5 6.5 6.8 7.0 6.9 6.9 7.0 6.8 6.6 6.2 5.9 5.8 5.7 5.6 5.5 5.6 5.5 5.5 5.5 5.5 5.6 5.8 5.9 6.0 5.9 5.9 5.7 5.6 5.8 5.8 5.9 5.9 5.8 5.7 5.8 5.9 5.9
6.4 6.4 6.4 6.6 6.8 6.8 6.9 6.9 6.6 6.5 6.2 5.9 5.8 5.7 5.7 5.5 5.2 5.3 5.3 5.3 5.4 5.3 5.4 5.5 5.5 5.6 5.7 5.8 6.0 6.0 6.1 6.1 6.1 6.0 6.0 6.1 6.1 6.1
6.3 6.2 6.2 6.4 6.6 6.8 6.8 6.8 6.5 6.5 6.3 6.1 5.9 5.7 5.6 5.5 5.5 5.5 5.5 5.5 5.4 5.5 5.4 5.5 5.8 6.0 6.0 6.2 6.2 6.2 6.2 6.2 6.2 6.1 6.0 6.0 5.9 5.8
Wind_Speed
7 6 5 6 5 5 5 5 4 7 7 7 3 2 6 13 14 17 14 18 21 28 29 30 31 33 39 40 39 37 36 33 32 30 30 30 28 25
6 6 7 7 6 5 6 5 5 8 9 4 7 3 3 6 13 15 18 19 20 26 28 30 30 31 36 39 38 37 34 33 33 32 30 28 28 26
8 8 10 8 6 5 4 5 5 4 9 11 4 4 6 7 7 8 14 15 16 22 26 30 30 29 32 35 39 39 36 35 32 33 33 32 30 29
9 7 9 6 8 6 5 7 5 4 5 15 9 6 7 6 7 8 8 14 14 18 21 25 26 28 27 34 34 36 35 34 33 33 34 33 32 29
8 7 7 5 9 6 5 6 5 6 7 9 9 6 5 4 7 4 7 9 12 18 21 26 28 29 32 30 36 36 36 35 37 35 36 37 34 30
6 7 7 6 6 7 6 7 7 7 8 9 11 8 6 3 3 6 10 6 8 10 15 18 21 28 27 27 36 43 43 40 37 37 36 37 36 29
10 9 8 9 13 9 7 10 8 8 7 8 11 9 4 2 4 2 7 9 11 9 9 7 4 8 14 28 33 43 46 49 46 43 41 38 35 34
10 9 8 12 11 14 17 13 9 9 12 9 10 9 8 4 4 6 7 6 8 3 3 7 3 9 9 16 29 36 45 48 49 47 43 42 39 35
10 10 9 9 12 11 14 15 14 13 12 12 12 10 8 4 4 7 7 7 9 7 2 1 4 3 3 13 31 41 47 49 49 48 46 42 39 35
10 11 12 13 11 12 12 11 10 9 10 7 10 11 8 6 8 8 8 5 1 2 2 2 3 5 4 2 33 41 45 46 46 45 41 38 36 32
9 10 12 14 16 19 13 12 11 9 9 15 16 12 12 12 11 6 6 4 1 2 3 2 2 7 8 8 14 23 41 44 43 41 35 34 32 30
10 11 14 14 19 21 13 11 10 9 6 4 3 6 7 8 13 9 4 5 3 2 1 3 6 4 4 5 7 13 21 40 38 36 34 31 31 20
11 10 10 17 20 22 19 9 9 2 2 4 4 3 3 4 2 1 2 3 3 2 4 3 3 3 4 5 4 6 12 17 22 27 30 29 24 20
12 10 10 21 22 22 13 10 9 4 2 2 2 2 2 0 1 3 5 5 3 2 9 3 4 5 8 8 6 6 8 13 18 11 17 22 20 16
9 13 19 18 19 11 8 8 4 2 1 1 1 1 1 1 2 5 9 11 9 8 8 7 7 10 10 7 8 7 9 7 12 9 11 12 11 14
13 10 10 10 8 6 3 3 2 1 0 1 1 1 1 1 4 4 5 7 8 7 11 12 10 9 8 9 11 9 10 5 8 7 7 9 13 13
12 7 6 3 3 3 2 2 2 2 2 1 3 3 3 4 5 3 3 5 6 6 7 8 15 15 9 12 9 9 8 10 8 8 8 6 6 9
6 6 5 3 3 3 1 1 2 2 1 3 3 3 4 4 4 4 5 6 8 7 8 7 10 12 10 13 13 9 8 8 7 8 7 6 6 7
5 5 4 4 3 3 2 1 0 1 2 3 3 5 5 4 5 5 5 7 7 7 5 4 6 7 9 5 2 14 9 7 7 6 5 3 4 5
5 5 5 4 3 2 2 2 2 2 2 3 4 5 4 4 5 5 5 7 7 6 6 6 5 6 9 6 5 3 10 9 7 5 3 3 8 11
8 6 4 3 3 2 2 2 3 3 2 4 4 5 5 5 5 5 6 8 9 7 7 6 3 7 8 6 7 5 6 14 9 6 4 5 3 2
7 6 5 3 3 2 3 3 3 4 3 4 5 5 5 5 6 7 7 8 7 7 7 5 3 4 4 6 8 6 4 5 18 18 14 7 3 4
7 6 5 3 3 3 3 3 4 3 3 4 4 5 5 6 6 6 8 8 8 8 6 6 5 6 5 5 7 3 5 3 2 3 4 11 9 7
Wind_Direction
249 247 238 245 240 244 243 240 253 280 285 288 296 267 338 327 318 304 268 250 225 227 227 225 217 205 198 193 192 191 200 197 193 188 181 180 173 174
258 249 251 257 248 241 241 236 244 270 286 321 280 284 276 291 310 320 311 276 257 233 224 228 223 212 205 193 189 190 192 191 186 183 177 175 170 167
271 257 261 255 257 249 240 236 229 221 284 291 273 286 289 292 292 298 313 304 278 244 229 227 223 216 212 194 188 185 186 183 183 178 173 166 166 159
281 274 267 278 282 275 260 251 241 239 252 281 287 290 282 282 286 309 306 300 294 286 239 227 228 224 215 200 188 180 177 173 180 172 160 157 155 155
294 288 283 290 291 288 261 259 254 264 251 264 282 283 270 259 281 285 304 291 292 289 275 232 225 225 222 202 183 177 166 165 164 162 159 149 148 149
299 293 289 279 275 290 288 276 274 273 267 268 278 273 258 249 269 307 305 291 285 291 277 255 231 227 218 199 193 172 167 161 155 148 143 139 142 146
309 305 305 299 295 277 280 286 289 287 276 267 279 276 256 247 251 286 284 294 295 295 282 270 228 235 222 209 193 176 165 156 149 144 141 139 134 135
303 301 297 310 306 296 293 273 255 275 273 268 266 263 270 249 245 253 266 284 296 213 252 263 285 225 212 204 197 176 160 150 145 143 140 136 134 136
290 294 292 296 292 291 290 276 259 252 245 260 267 265 269 242 244 257 256 254 274 292 169 339 339 352 259 191 176 168 157 150 145 141 138 137 135 138
297 297 294 299 295 285 278 275 265 257 253 246 245 260 259 262 262 265 269 268 177 48 40 79 342 21 356 76 164 164 151 143 140 134 133 133 135 142
298 297 298 299 297 292 287 276 272 258 244 250 250 251 264 272 268 276 254 222 185 19 32 94 5 75 51 56 102 136 135 132 122 120 129 135 143 144
304 302 298 298 296 295 291 280 278 269 248 238 247 260 263 275 279 256 211 211 133 112 191 93 137 97 54 21 77 115 115 105 116 126 135 145 147 146
313 310 307 304 305 304 294 283 267 280 240 246 242 253 260 269 257 255 159 180 150 110 169 135 138 91 88 120 82 99 105 115 122 129 140 147 151 152
310 306 300 307 308 308 304 296 298 292 234 247 269 275 269 290 58 79 88 81 72 130 151 192 120 142 131 120 113 116 108 114 120 125 134 145 149 147
299 289 292 301 307 304 313 321 324 312 273 199 229 308 344 84 112 81 77 80 69 79 78 94 118 127 132 127 131 130 124 115 122 124 130 138 142 146
305 294 290 292 287 298 317 8 10 7 324 95 80 77 54 44 64 69 94 94 85 68 66 96 115 127 115 122 130 126 130 133 134 125 122 118 125 143
302 296 292 284 295 304 337 30 37 34 44 89 102 89 80 78 63 57 76 85 104 107 88 77 77 82 87 123 118 125 119 123 127 129 131 121 124 135
304 297 301 284 280 285 266 46 30 49 74 92 81 83 79 76 77 65 80 99 105 105 106 108 108 101 89 56 61 117 116 124 128 125 127 118 103 105
324 312 308 301 283 269 211 177 138 103 96 89 96 87 85 79 86 86 92 98 92 94 79 94 119 124 118 106 69 56 121 120 116 101 113 101 125 136
321 305 301 296 285 259 187 151 128 119 102 108 99 95 91 98 100 93 92 104 102 97 84 66 70 99 121 126 111 48 92 127 128 110 107 82 77 115
326 311 295 295 279 239 169 150 132 138 135 122 107 108 106 107 97 97 95 97 101 97 90 78 50 95 109 107 99 85 42 62 108 123 123 107 106 115
319 305 298 286 265 208 159 148 131 139 134 119 115 112 109 114 117 115 112 106 94 94 99 96 78 88 63 109 109 104 93 51 74 82 77 92 149 178
311 309 295 276 250 199 156 150 146 146 146 132 131 122 120 117 115 113 113 112 114 110 105 96 79 75 77 97 108 100 97 72 51 93 64 57 68 72